Time,TemperatureF,DewpointF,PressureIn,WindDirection,WindDirectionDegrees,WindSpeedMPH,WindSpeedGustMPH,Humidity,HourlyPrecipIn,Conditions,Clouds,dailyrainin,SoftwareType,DateUTC
2013-06-27 00:01:00,68.9,67.4,29.72,SE,134,0.0,0.0,95,0.00,,,0.00,LWC V1.12 B30,2013-06-27 04:01:00,
2013-06-27 00:03:00,68.9,67.4,29.72,SE,134,0.0,0.0,95,0.00,,,0.00,LWC V1.12 B30,2013-06-27 04:03:00,
2013-06-27 00:05:00,68.9,67.4,29.72,SE,134,0.0,0.0,95,0.00,,,0.00,LWC V1.12 B30,2013-06-27 04:05:00,
2013-06-27 00:11:00,68.8,67.3,29.72,SE,134,0.0,0.0,95,0.00,,,0.00,LWC V1.12 B30,2013-06-27 04:11:00,
2013-06-27 00:13:00,68.8,67.3,29.72,SE,134,0.0,0.0,95,0.00,,,0.00,LWC V1.12 B30,2013-06-27 04:13:00,
2013-06-27 00:19:00,68.8,67.3,29.72,SE,134,0.0,0.0,95,0.00,,,0.00,LWC V1.12 B30,2013-06-27 04:19:00,
2013-06-27 00:25:00,68.6,67.1,29.72,SE,134,0.0,0.0,95,0.00,,,0.00,LWC V1.12 B30,2013-06-27 04:25:00,
2013-06-27 00:31:00,68.8,67.6,29.72,SE,134,0.0,1.0,96,0.00,,,0.01,LWC V1.12 B30,2013-06-27 04:31:00,
2013-06-27 00:37:00,68.8,67.6,29.72,SE,134,0.0,0.0,96,0.00,,,0.01,LWC V1.12 B30,2013-06-27 04:37:00,
2013-06-27 00:43:00,68.6,67.4,29.72,SE,134,0.0,0.0,96,0.00,,,0.01,LWC V1.12 B30,2013-06-27 04:43:00,
2013-06-27 00:49:00,68.6,67.4,29.72,SE,134,0.0,0.0,96,0.00,,,0.01,LWC V1.12 B30,2013-06-27 04:49:00,
2013-06-27 00:55:00,68.6,67.4,29.72,SE,134,0.0,0.0,96,0.00,,,0.01,LWC V1.12 B30,2013-06-27 04:55:00,
2013-06-27 01:01:00,68.6,67.4,29.72,SE,134,0.0,0.0,96,0.00,,,0.01,LWC V1.12 B30,2013-06-27 05:01:00,
2013-06-27 01:07:00,68.6,67.4,29.72,SE,134,0.0,0.0,96,0.00,,,0.01,LWC V1.12 B30,2013-06-27 05:07:00,
2013-06-27 01:13:00,68.8,67.6,29.72,SE,134,0.0,0.0,96,0.00,,,0.01,LWC V1.12 B30,2013-06-27 05:13:00,
2013-06-27 01:19:00,68.8,67.6,29.72,SE,134,0.0,0.0,96,0.00,,,0.01,LWC V1.12 B30,2013-06-27 05:19:00,
2013-06-27 01:25:00,68.8,67.6,29.72,SSE,157,0.0,1.0,96,0.00,,,0.01,LWC V1.12 B30,2013-06-27 05:25:00,
2013-06-27 01:31:00,68.8,67.6,29.72,SSE,157,0.0,0.0,96,0.00,,,0.02,LWC V1.12 B30,2013-06-27 05:31:00,
2013-06-27 01:37:00,68.6,67.4,29.71,SSE,157,0.0,0.0,96,0.00,,,0.02,LWC V1.12 B30,2013-06-27 05:37:00,
2013-06-27 01:43:00,68.6,67.4,29.71,SSE,157,0.0,0.0,96,0.00,,,0.02,LWC V1.12 B30,2013-06-27 05:43:00,
2013-06-27 01:49:00,68.6,67.4,29.71,SSE,157,0.0,0.0,96,0.00,,,0.03,LWC V1.12 B30,2013-06-27 05:49:00,
2013-06-27 01:55:00,68.6,67.4,29.71,SSE,157,0.0,0.0,96,0.00,,,0.03,LWC V1.12 B30,2013-06-27 05:55:00,
2013-06-27 02:01:00,68.6,67.4,29.71,SSE,157,0.0,0.0,96,0.00,,,0.03,LWC V1.12 B30,2013-06-27 06:01:00,
2013-06-27 02:07:00,68.6,67.4,29.70,SSE,157,0.0,0.0,96,0.00,,,0.03,LWC V1.12 B30,2013-06-27 06:07:00,
2013-06-27 02:13:00,68.6,67.7,29.70,SSE,157,0.0,0.0,97,0.00,,,0.03,LWC V1.12 B30,2013-06-27 06:13:00,
2013-06-27 02:19:00,68.6,67.7,29.69,SSE,157,0.0,0.0,97,0.00,,,0.04,LWC V1.12 B30,2013-06-27 06:19:00,
2013-06-27 02:25:00,68.6,67.7,29.69,SSE,157,0.0,0.0,97,0.00,,,0.04,LWC V1.12 B30,2013-06-27 06:25:00,
2013-06-27 02:31:00,68.4,67.5,29.69,SSE,157,0.0,0.0,97,0.00,,,0.04,LWC V1.12 B30,2013-06-27 06:31:00,
2013-06-27 02:37:00,68.4,67.5,29.69,SSE,157,0.0,0.0,97,0.00,,,0.04,LWC V1.12 B30,2013-06-27 06:37:00,
2013-06-27 02:43:00,68.4,67.5,29.68,SSE,157,0.0,0.0,97,0.00,,,0.04,LWC V1.12 B30,2013-06-27 06:43:00,
2013-06-27 02:49:00,68.4,67.5,29.68,SSE,157,0.0,0.0,97,0.00,,,0.04,LWC V1.12 B30,2013-06-27 06:49:00,
2013-06-27 02:55:00,68.4,67.5,29.68,SSE,157,0.0,0.0,97,0.00,,,0.04,LWC V1.12 B30,2013-06-27 06:55:00,
2013-06-27 03:01:00,68.3,67.4,29.68,SSE,157,0.0,0.0,97,0.00,,,0.04,LWC V1.12 B30,2013-06-27 07:01:00,
2013-06-27 03:07:00,68.3,67.4,29.67,SSE,157,0.0,0.0,97,0.00,,,0.04,LWC V1.12 B30,2013-06-27 07:07:00,
2013-06-27 03:13:00,68.3,67.4,29.67,SSE,157,0.0,0.0,97,0.00,,,0.04,LWC V1.12 B30,2013-06-27 07:13:00,
2013-06-27 03:19:00,68.3,67.4,29.68,SSE,157,0.0,0.0,97,0.00,,,0.04,LWC V1.12 B30,2013-06-27 07:19:00,
2013-06-27 03:25:00,68.3,67.4,29.68,SSE,157,0.0,0.0,97,0.00,,,0.04,LWC V1.12 B30,2013-06-27 07:25:00,
2013-06-27 03:31:00,68.3,67.4,29.68,SSE,157,0.0,0.0,97,0.00,,,0.04,LWC V1.12 B30,2013-06-27 07:31:00,
2013-06-27 03:37:00,68.1,67.2,29.68,SSE,157,0.0,0.0,97,0.00,,,0.04,LWC V1.12 B30,2013-06-27 07:37:00,
2013-06-27 03:43:00,68.1,67.2,29.68,SSE,157,0.0,0.0,97,0.00,,,0.04,LWC V1.12 B30,2013-06-27 07:43:00,
2013-06-27 03:49:00,68.1,67.2,29.69,SSE,157,0.0,0.0,97,0.00,,,0.04,LWC V1.12 B30,2013-06-27 07:49:00,
2013-06-27 03:55:00,68.1,67.2,29.68,SSE,157,0.0,0.0,97,0.00,,,0.04,LWC V1.12 B30,2013-06-27 07:55:00,
2013-06-27 04:01:00,68.1,67.2,29.68,SSE,157,0.0,0.0,97,0.00,,,0.04,LWC V1.12 B30,2013-06-27 08:01:00,
2013-06-27 04:07:00,68.3,67.4,29.68,SSE,157,0.0,0.0,97,0.00,,,0.04,LWC V1.12 B30,2013-06-27 08:07:00,
2013-06-27 04:13:00,68.3,67.4,29.68,SSE,157,0.0,0.0,97,0.00,,,0.04,LWC V1.12 B30,2013-06-27 08:13:00,
2013-06-27 04:19:00,68.1,67.2,29.68,SSE,157,0.0,0.0,97,0.00,,,0.05,LWC V1.12 B30,2013-06-27 08:19:00,
2013-06-27 04:25:00,68.3,67.4,29.68,SSE,157,0.0,0.0,97,0.00,,,0.05,LWC V1.12 B30,2013-06-27 08:25:00,
2013-06-27 04:31:00,68.3,67.4,29.68,SSE,157,0.0,0.0,97,0.00,,,0.05,LWC V1.12 B30,2013-06-27 08:31:00,
2013-06-27 04:37:00,68.1,67.2,29.68,SSE,157,0.0,0.0,97,0.00,,,0.05,LWC V1.12 B30,2013-06-27 08:37:00,
2013-06-27 04:43:00,68.1,67.2,29.68,SSE,157,0.0,0.0,97,0.00,,,0.05,LWC V1.12 B30,2013-06-27 08:43:00,
2013-06-27 04:49:00,68.3,67.4,29.68,SSE,157,0.0,0.0,97,0.00,,,0.05,LWC V1.12 B30,2013-06-27 08:49:00,
2013-06-27 04:55:00,68.3,67.4,29.68,SSE,157,0.0,0.0,97,0.00,,,0.05,LWC V1.12 B30,2013-06-27 08:55:00,
2013-06-27 05:01:00,68.1,67.2,29.69,SSE,157,0.0,0.0,97,0.00,,,0.05,LWC V1.12 B30,2013-06-27 09:01:00,
2013-06-27 05:07:00,68.1,67.2,29.69,SSE,157,0.0,0.0,97,0.00,,,0.05,LWC V1.12 B30,2013-06-27 09:07:00,
2013-06-27 05:13:00,67.9,67.0,29.69,SSE,157,0.0,0.0,97,0.00,,,0.05,LWC V1.12 B30,2013-06-27 09:13:00,
2013-06-27 05:19:00,67.9,67.0,29.69,SSE,157,0.0,0.0,97,0.00,,,0.05,LWC V1.12 B30,2013-06-27 09:19:00,
2013-06-27 05:25:00,68.1,67.2,29.69,SSE,157,0.0,0.0,97,0.00,,,0.05,LWC V1.12 B30,2013-06-27 09:25:00,
2013-06-27 05:31:00,68.1,67.2,29.69,SSE,157,0.0,0.0,97,0.00,,,0.05,LWC V1.12 B30,2013-06-27 09:31:00,
2013-06-27 05:37:00,68.1,67.2,29.68,SSE,157,0.0,0.0,97,0.00,,,0.05,LWC V1.12 B30,2013-06-27 09:37:00,
2013-06-27 05:43:00,68.1,67.2,29.69,SSE,157,0.0,0.0,97,0.00,,,0.05,LWC V1.12 B30,2013-06-27 09:43:00,
2013-06-27 05:49:00,68.1,67.2,29.69,SSE,157,0.0,0.0,97,0.00,,,0.05,LWC V1.12 B30,2013-06-27 09:49:00,
2013-06-27 05:55:00,67.9,67.0,29.69,SSE,157,0.0,0.0,97,0.00,,,0.05,LWC V1.12 B30,2013-06-27 09:55:00,
2013-06-27 06:01:00,67.9,67.0,29.69,SSE,157,0.0,0.0,97,0.00,,,0.05,LWC V1.12 B30,2013-06-27 10:01:00,
2013-06-27 06:07:00,67.8,66.9,29.69,SSE,157,0.0,0.0,97,0.00,,,0.05,LWC V1.12 B30,2013-06-27 10:07:00,
2013-06-27 06:13:00,67.8,67.2,29.69,SSE,157,0.0,0.0,98,0.00,,,0.05,LWC V1.12 B30,2013-06-27 10:13:00,
2013-06-27 06:19:00,67.8,67.2,29.69,SSE,157,0.0,0.0,98,0.00,,,0.05,LWC V1.12 B30,2013-06-27 10:19:00,
2013-06-27 06:25:00,67.8,67.2,29.69,SSE,157,0.0,0.0,98,0.00,,,0.05,LWC V1.12 B30,2013-06-27 10:25:00,
2013-06-27 06:31:00,67.8,67.2,29.69,SSE,157,0.0,0.0,98,0.00,,,0.05,LWC V1.12 B30,2013-06-27 10:31:00,
2013-06-27 06:37:00,67.8,67.2,29.69,SSE,157,0.0,0.0,98,0.00,,,0.05,LWC V1.12 B30,2013-06-27 10:37:00,
2013-06-27 06:43:00,67.8,67.2,29.69,SSE,157,0.0,0.0,98,0.00,,,0.05,LWC V1.12 B30,2013-06-27 10:43:00,
2013-06-27 06:49:00,67.8,67.2,29.70,SSE,157,0.0,0.0,98,0.00,,,0.05,LWC V1.12 B30,2013-06-27 10:49:00,
2013-06-27 06:55:00,67.9,67.3,29.70,SSE,157,0.0,0.0,98,0.00,,,0.05,LWC V1.12 B30,2013-06-27 10:55:00,
2013-06-27 07:01:00,67.9,67.3,29.70,SSE,157,0.0,0.0,98,0.00,,,0.05,LWC V1.12 B30,2013-06-27 11:01:00,
2013-06-27 07:07:00,67.9,67.3,29.70,SSE,157,0.0,0.0,98,0.00,,,0.05,LWC V1.12 B30,2013-06-27 11:07:00,
2013-06-27 07:13:00,68.1,67.5,29.70,SSE,157,0.0,0.0,98,0.00,,,0.05,LWC V1.12 B30,2013-06-27 11:13:00,
2013-06-27 07:19:00,67.9,67.3,29.70,SSE,157,0.0,0.0,98,0.00,,,0.05,LWC V1.12 B30,2013-06-27 11:19:00,
2013-06-27 07:25:00,68.1,67.5,29.70,SSE,157,2.0,2.0,98,0.00,,,0.05,LWC V1.12 B30,2013-06-27 11:25:00,
2013-06-27 07:31:00,67.9,67.3,29.70,SSE,157,2.0,2.0,98,0.00,,,0.05,LWC V1.12 B30,2013-06-27 11:31:00,
2013-06-27 07:37:00,67.9,67.3,29.70,SSE,157,0.0,1.0,98,0.00,,,0.05,LWC V1.12 B30,2013-06-27 11:37:00,
2013-06-27 07:43:00,67.9,67.3,29.69,SSE,157,0.0,1.0,98,0.00,,,0.05,LWC V1.12 B30,2013-06-27 11:43:00,
2013-06-27 07:49:00,67.9,67.3,29.69,SSE,157,0.0,0.0,98,0.00,,,0.05,LWC V1.12 B30,2013-06-27 11:49:00,
2013-06-27 07:55:00,67.8,67.2,29.69,SSE,157,0.0,0.0,98,0.00,,,0.05,LWC V1.12 B30,2013-06-27 11:55:00,
2013-06-27 08:01:00,67.9,67.3,29.69,SSE,157,0.0,0.0,98,0.00,,,0.05,LWC V1.12 B30,2013-06-27 12:01:00,
2013-06-27 08:07:00,68.1,67.5,29.69,SSE,157,0.0,0.0,98,0.00,,,0.05,LWC V1.12 B30,2013-06-27 12:07:00,
2013-06-27 08:13:00,68.3,67.7,29.69,SSE,157,0.0,0.0,98,0.00,,,0.05,LWC V1.12 B30,2013-06-27 12:13:00,
2013-06-27 08:19:00,68.4,67.8,29.69,SSE,157,0.0,0.0,98,0.00,,,0.05,LWC V1.12 B30,2013-06-27 12:19:00,
2013-06-27 08:25:00,68.8,68.2,29.69,SSE,157,0.0,0.0,98,0.00,,,0.05,LWC V1.12 B30,2013-06-27 12:25:00,
2013-06-27 08:31:00,69.1,68.5,29.69,SSE,157,0.0,0.0,98,0.00,,,0.05,LWC V1.12 B30,2013-06-27 12:31:00,
2013-06-27 08:37:00,69.1,68.5,29.69,SSE,157,0.0,0.0,98,0.00,,,0.05,LWC V1.12 B30,2013-06-27 12:37:00,
2013-06-27 08:43:00,69.4,68.8,29.69,SSE,157,0.0,1.0,98,0.00,,,0.05,LWC V1.12 B30,2013-06-27 12:43:00,
2013-06-27 08:49:00,69.6,69.0,29.69,SSE,157,0.0,0.0,98,0.00,,,0.05,LWC V1.12 B30,2013-06-27 12:49:00,
2013-06-27 08:55:00,69.4,68.8,29.69,SSE,157,0.0,0.0,98,0.00,,,0.05,LWC V1.12 B30,2013-06-27 12:55:00,
2013-06-27 09:01:00,69.4,68.8,29.69,SSE,157,0.0,0.0,98,0.00,,,0.05,LWC V1.12 B30,2013-06-27 13:01:00,
2013-06-27 09:07:00,69.8,69.2,29.68,SSE,157,0.0,0.0,98,0.00,,,0.05,LWC V1.12 B30,2013-06-27 13:07:00,
2013-06-27 09:13:00,69.8,69.2,29.68,SSE,157,0.0,1.0,98,0.00,,,0.05,LWC V1.12 B30,2013-06-27 13:13:00,
2013-06-27 09:19:00,70.1,69.5,29.68,SSE,157,0.0,1.0,98,0.00,,,0.05,LWC V1.12 B30,2013-06-27 13:19:00,
2013-06-27 09:25:00,70.8,70.2,29.68,SSE,157,0.0,1.0,98,0.00,,,0.05,LWC V1.12 B30,2013-06-27 13:25:00,
2013-06-27 09:31:00,70.6,69.7,29.68,SSE,157,0.0,0.0,97,0.00,,,0.05,LWC V1.12 B30,2013-06-27 13:31:00,
2013-06-27 09:37:00,70.8,69.9,29.67,SSE,157,0.0,0.0,97,0.00,,,0.05,LWC V1.12 B30,2013-06-27 13:37:00,
2013-06-27 09:43:00,70.6,69.7,29.67,SSE,157,0.0,0.0,97,0.00,,,0.05,LWC V1.12 B30,2013-06-27 13:43:00,
2013-06-27 09:49:00,70.8,69.9,29.67,SSE,157,0.0,0.0,97,0.00,,,0.05,LWC V1.12 B30,2013-06-27 13:49:00,
2013-06-27 09:55:00,71.1,70.2,29.67,SSE,157,0.0,0.0,97,0.00,,,0.05,LWC V1.12 B30,2013-06-27 13:55:00,
2013-06-27 10:01:00,71.3,70.1,29.67,SSE,157,0.0,0.0,96,0.00,,,0.05,LWC V1.12 B30,2013-06-27 14:01:00,
2013-06-27 10:07:00,71.5,70.3,29.67,SSE,157,0.0,0.0,96,0.00,,,0.05,LWC V1.12 B30,2013-06-27 14:07:00,
2013-06-27 10:13:00,72.0,70.5,29.67,SSE,157,0.0,0.0,95,0.00,,,0.05,LWC V1.12 B30,2013-06-27 14:13:00,
2013-06-27 10:19:00,72.8,71.0,29.67,SSE,157,0.0,0.0,94,0.00,,,0.05,LWC V1.12 B30,2013-06-27 14:19:00,
2013-06-27 10:25:00,73.3,70.8,29.67,SSE,157,0.0,0.0,92,0.00,,,0.05,LWC V1.12 B30,2013-06-27 14:25:00,
2013-06-27 10:31:00,73.5,69.7,29.67,SSE,157,0.0,2.0,88,0.00,,,0.05,LWC V1.12 B30,2013-06-27 14:31:00,
2013-06-27 10:37:00,73.9,69.4,29.67,SSE,157,0.0,0.0,86,0.00,,,0.05,LWC V1.12 B30,2013-06-27 14:37:00,
2013-06-27 10:43:00,74.2,69.4,29.67,SSE,157,0.0,0.0,85,0.00,,,0.05,LWC V1.12 B30,2013-06-27 14:43:00,
2013-06-27 10:49:00,74.4,68.9,29.68,SSE,157,0.0,0.0,83,0.00,,,0.05,LWC V1.12 B30,2013-06-27 14:49:00,
2013-06-27 10:55:00,74.6,68.7,29.68,SSE,157,0.0,0.0,82,0.00,,,0.05,LWC V1.12 B30,2013-06-27 14:55:00,
2013-06-27 11:01:00,74.7,68.5,29.68,SSE,157,0.0,0.0,81,0.00,,,0.05,LWC V1.12 B30,2013-06-27 15:01:00,
2013-06-27 11:07:00,75.1,68.9,29.68,SSE,157,0.0,0.0,81,0.00,,,0.05,LWC V1.12 B30,2013-06-27 15:07:00,
2013-06-27 11:13:00,76.0,69.0,29.68,SSE,157,1.0,2.0,79,0.00,,,0.05,LWC V1.12 B30,2013-06-27 15:13:00,
2013-06-27 11:19:00,77.4,70.0,29.67,SSE,157,0.0,1.0,78,0.00,,,0.05,LWC V1.12 B30,2013-06-27 15:19:00,
2013-06-27 11:25:00,78.1,69.1,29.68,SSE,157,0.0,1.0,74,0.00,,,0.05,LWC V1.12 B30,2013-06-27 15:25:00,
2013-06-27 11:31:00,78.6,69.2,29.68,SSE,157,0.0,1.0,73,0.00,,,0.05,LWC V1.12 B30,2013-06-27 15:31:00,
2013-06-27 11:37:00,79.0,70.0,29.68,SSE,155,0.0,1.0,74,0.00,,,0.05,LWC V1.12 B30,2013-06-27 15:37:00,
2013-06-27 11:43:00,79.2,69.8,29.68,SSE,155,0.0,0.0,73,0.00,,,0.05,LWC V1.12 B30,2013-06-27 15:43:00,
2013-06-27 11:49:00,79.8,69.5,29.68,SSE,155,0.0,0.0,71,0.00,,,0.05,LWC V1.12 B30,2013-06-27 15:49:00,
2013-06-27 11:55:00,80.1,69.4,29.68,South,177,0.0,1.0,70,0.00,,,0.05,LWC V1.12 B30,2013-06-27 15:55:00,
2013-06-27 12:01:00,80.1,69.8,29.68,SW,234,1.0,1.0,71,0.00,,,0.05,LWC V1.12 B30,2013-06-27 16:01:00,
2013-06-27 12:07:00,79.0,68.8,29.68,SW,234,2.0,2.0,71,0.00,,,0.05,LWC V1.12 B30,2013-06-27 16:07:00,
2013-06-27 12:13:00,78.1,68.7,29.68,SW,234,0.0,2.0,73,0.00,,,0.05,LWC V1.12 B30,2013-06-27 16:13:00,
2013-06-27 12:19:00,78.1,69.1,29.68,SW,234,0.0,1.0,74,0.00,,,0.05,LWC V1.12 B30,2013-06-27 16:19:00,
2013-06-27 12:25:00,78.8,69.4,29.68,South,184,1.0,1.0,73,0.00,,,0.05,LWC V1.12 B30,2013-06-27 16:25:00,
2013-06-27 12:31:00,79.8,69.5,29.67,SSW,202,0.0,0.0,71,0.00,,,0.05,LWC V1.12 B30,2013-06-27 16:31:00,
2013-06-27 12:37:00,80.5,69.4,29.67,South,185,0.0,2.0,69,0.00,,,0.05,LWC V1.12 B30,2013-06-27 16:37:00,
2013-06-27 12:43:00,80.5,67.6,29.67,South,185,0.0,1.0,65,0.00,,,0.05,LWC V1.12 B30,2013-06-27 16:43:00,
2013-06-27 12:49:00,80.1,68.1,29.67,South,185,0.0,1.0,67,0.00,,,0.05,LWC V1.12 B30,2013-06-27 16:49:00,
2013-06-27 12:55:00,79.6,68.5,29.67,South,185,0.0,0.0,69,0.00,,,0.05,LWC V1.12 B30,2013-06-27 16:55:00,
2013-06-27 13:01:00,79.0,68.8,29.67,South,185,0.0,0.0,71,0.00,,,0.05,LWC V1.12 B30,2013-06-27 17:01:00,
2013-06-27 13:07:00,78.3,68.1,29.66,South,185,0.0,1.0,71,0.00,,,0.05,LWC V1.12 B30,2013-06-27 17:07:00,
2013-06-27 13:13:00,78.1,67.9,29.66,South,185,0.0,0.0,71,0.00,,,0.05,LWC V1.12 B30,2013-06-27 17:13:00,
2013-06-27 13:19:00,78.3,69.3,29.66,South,185,0.0,0.0,74,0.00,,,0.05,LWC V1.12 B30,2013-06-27 17:19:00,
2013-06-27 13:25:00,78.3,70.5,29.66,South,185,0.0,0.0,77,0.00,,,0.05,LWC V1.12 B30,2013-06-27 17:25:00,
2013-06-27 13:31:00,78.1,69.5,29.66,South,185,0.0,0.0,75,0.00,,,0.05,LWC V1.12 B30,2013-06-27 17:31:00,
2013-06-27 13:37:00,78.8,69.8,29.66,South,185,0.0,0.0,74,0.00,,,0.05,LWC V1.12 B30,2013-06-27 17:37:00,
2013-06-27 13:43:00,79.0,67.5,29.66,South,185,0.0,0.0,68,0.00,,,0.05,LWC V1.12 B30,2013-06-27 17:43:00,
2013-06-27 13:49:00,79.8,68.7,29.66,SSW,207,0.0,4.0,69,0.00,,,0.05,LWC V1.12 B30,2013-06-27 17:49:00,
2013-06-27 13:55:00,80.7,68.7,29.65,SE,128,0.0,0.0,67,0.00,,,0.05,LWC V1.12 B30,2013-06-27 17:55:00,
2013-06-27 14:01:00,81.8,69.7,29.65,SSW,204,0.0,1.0,67,0.00,,,0.05,LWC V1.12 B30,2013-06-27 18:01:00,
2013-06-27 14:07:00,82.2,67.9,29.65,SSW,192,1.0,2.0,62,0.00,,,0.05,LWC V1.12 B30,2013-06-27 18:07:00,
2013-06-27 14:13:00,82.8,68.4,29.65,South,190,0.0,1.0,62,0.00,,,0.05,LWC V1.12 B30,2013-06-27 18:13:00,
2013-06-27 14:19:00,83.2,69.7,29.65,South,191,1.0,2.0,64,0.00,,,0.05,LWC V1.12 B30,2013-06-27 18:19:00,
2013-06-27 14:25:00,82.4,68.5,29.65,SW,215,3.0,6.0,63,0.00,,,0.05,LWC V1.12 B30,2013-06-27 18:25:00,
2013-06-27 14:31:00,81.2,68.3,29.64,SSW,206,0.0,2.0,65,0.00,,,0.05,LWC V1.12 B30,2013-06-27 18:31:00,
2013-06-27 14:37:00,81.4,68.9,29.64,SE,125,1.0,4.0,66,0.00,,,0.05,LWC V1.12 B30,2013-06-27 18:37:00,
2013-06-27 14:43:00,81.8,67.5,29.63,SW,216,0.0,3.0,62,0.00,,,0.05,LWC V1.12 B30,2013-06-27 18:43:00,
2013-06-27 14:49:00,81.8,67.9,29.63,SSW,202,0.0,7.0,63,0.00,,,0.05,LWC V1.12 B30,2013-06-27 18:49:00,
2013-06-27 14:55:00,81.2,68.3,29.63,West,277,4.0,4.0,65,0.00,,,0.05,LWC V1.12 B30,2013-06-27 18:55:00,
2013-06-27 15:01:00,80.5,69.8,29.63,SSW,208,2.0,2.0,70,0.00,,,0.05,LWC V1.12 B30,2013-06-27 19:01:00,
2013-06-27 15:07:00,79.4,70.0,29.63,SSW,203,0.0,1.0,73,0.00,,,0.05,LWC V1.12 B30,2013-06-27 19:07:00,
2013-06-27 15:13:00,77.6,70.9,29.64,SW,222,4.0,5.0,80,2.85,,,0.05,LWC V1.12 B30,2013-06-27 19:13:00,
2013-06-27 15:19:00,74.7,69.2,29.63,SSE,155,0.0,0.0,83,0.64,,,0.20,LWC V1.12 B30,2013-06-27 19:19:00,
2013-06-27 15:25:00,73.0,68.2,29.64,SE,140,0.0,0.0,85,0.37,,,0.20,LWC V1.12 B30,2013-06-27 19:25:00,
2013-06-27 15:31:00,72.1,68.3,29.64,SSE,153,0.0,1.0,88,3.15,,,0.37,LWC V1.12 B30,2013-06-27 19:31:00,
2013-06-27 15:37:00,71.6,68.5,29.63,SSE,153,0.0,0.0,90,0.33,,,0.37,LWC V1.12 B30,2013-06-27 19:37:00,
2013-06-27 15:43:00,70.9,68.1,29.64,SSW,204,1.0,3.0,91,4.33,,,0.37,LWC V1.12 B30,2013-06-27 19:43:00,
2013-06-27 15:49:00,70.1,67.7,29.65,South,182,0.0,2.0,92,4.47,,,0.87,LWC V1.12 B30,2013-06-27 19:49:00,
2013-06-27 15:55:00,68.9,66.5,29.65,SE,124,1.0,2.0,92,2.30,,,0.87,LWC V1.12 B30,2013-06-27 19:55:00,
2013-06-27 16:01:00,67.8,65.7,29.64,East,95,0.0,5.0,93,0.98,,,1.63,LWC V1.12 B30,2013-06-27 20:01:00,
2013-06-27 16:07:00,67.6,65.8,29.63,ESE,118,1.0,2.0,94,0.30,,,1.63,LWC V1.12 B30,2013-06-27 20:07:00,
2013-06-27 16:13:00,67.4,65.9,29.63,South,189,1.0,1.0,95,0.07,,,1.63,LWC V1.12 B30,2013-06-27 20:13:00,
2013-06-27 16:19:00,66.9,65.4,29.62,SSE,150,1.0,9.0,95,0.49,,,1.69,LWC V1.12 B30,2013-06-27 20:19:00,
2013-06-27 16:25:00,66.6,65.1,29.62,SSW,194,0.0,0.0,95,0.13,,,1.69,LWC V1.12 B30,2013-06-27 20:25:00,
2013-06-27 16:33:00,66.9,65.7,29.62,SSW,194,0.0,0.0,96,0.05,,,1.73,LWC V1.12 B30,2013-06-27 20:33:00,
2013-06-27 16:39:00,66.9,65.7,29.62,SE,144,0.0,4.0,96,0.00,,,1.73,LWC V1.12 B30,2013-06-27 20:39:00,
2013-06-27 16:45:00,66.9,65.7,29.61,SSE,155,0.0,1.0,96,0.20,,,1.74,LWC V1.12 B30,2013-06-27 20:45:00,
2013-06-27 16:51:00,66.6,65.4,29.62,SSE,155,0.0,1.0,96,0.07,,,1.75,LWC V1.12 B30,2013-06-27 20:51:00,
2013-06-27 16:57:00,66.6,65.4,29.63,SSE,157,0.0,1.0,96,0.04,,,1.75,LWC V1.12 B30,2013-06-27 20:57:00,
2013-06-27 17:03:00,66.6,65.4,29.64,SSE,157,0.0,0.0,96,0.68,,,1.76,LWC V1.12 B30,2013-06-27 21:03:00,
2013-06-27 17:09:00,66.0,64.8,29.64,ESE,102,0.0,1.0,96,0.22,,,1.76,LWC V1.12 B30,2013-06-27 21:09:00,
2013-06-27 17:15:00,65.8,64.6,29.65,ESE,102,0.0,1.0,96,0.07,,,1.77,LWC V1.12 B30,2013-06-27 21:15:00,
2013-06-27 17:21:00,65.8,64.6,29.64,ESE,102,0.0,1.0,96,0.04,,,1.82,LWC V1.12 B30,2013-06-27 21:21:00,
2013-06-27 17:29:00,65.6,64.4,29.66,ESE,102,0.0,2.0,96,0.00,,,1.82,LWC V1.12 B30,2013-06-27 21:29:00,
2013-06-27 17:35:00,65.5,64.3,29.65,ESE,102,0.0,5.0,96,0.27,,,1.82,LWC V1.12 B30,2013-06-27 21:35:00,
2013-06-27 17:41:00,65.6,64.7,29.66,ESE,102,1.0,2.0,97,0.13,,,1.82,LWC V1.12 B30,2013-06-27 21:41:00,
2013-06-27 17:47:00,65.8,64.9,29.67,East,101,1.0,1.0,97,0.62,,,1.86,LWC V1.12 B30,2013-06-27 21:47:00,
2013-06-27 17:53:00,66.6,65.7,29.67,East,84,1.0,6.0,97,0.17,,,1.86,LWC V1.12 B30,2013-06-27 21:53:00,
2013-06-27 17:59:00,66.6,65.7,29.66,East,82,3.0,8.0,97,0.10,,,1.86,LWC V1.12 B30,2013-06-27 21:59:00,
2013-06-27 18:07:00,66.1,65.2,29.67,East,88,2.0,3.0,97,0.56,,,1.93,LWC V1.12 B30,2013-06-27 22:07:00,
2013-06-27 18:13:00,65.8,64.9,29.67,ENE,63,3.0,3.0,97,0.13,,,1.93,LWC V1.12 B30,2013-06-27 22:13:00,
2013-06-27 18:19:00,65.5,64.6,29.68,East,79,1.0,3.0,97,1.19,,,2.00,LWC V1.12 B30,2013-06-27 22:19:00,
2013-06-27 18:25:00,65.3,64.4,29.68,East,101,0.0,0.0,97,0.30,,,2.00,LWC V1.12 B30,2013-06-27 22:25:00,
2013-06-27 18:31:00,65.3,64.4,29.69,East,101,0.0,0.0,97,0.08,,,2.11,LWC V1.12 B30,2013-06-27 22:31:00,
2013-06-27 18:37:00,65.5,64.6,29.69,East,101,0.0,1.0,97,0.21,,,2.11,LWC V1.12 B30,2013-06-27 22:37:00,
2013-06-27 18:45:00,65.5,64.6,29.68,East,101,0.0,2.0,97,0.09,,,2.12,LWC V1.12 B30,2013-06-27 22:45:00,
2013-06-27 18:51:00,65.3,64.4,29.68,East,101,0.0,0.0,97,0.11,,,2.16,LWC V1.12 B30,2013-06-27 22:51:00,
2013-06-27 18:57:00,65.3,64.4,29.67,East,101,1.0,2.0,97,0.32,,,2.16,LWC V1.12 B30,2013-06-27 22:57:00,
2013-06-27 19:03:00,65.0,64.1,29.67,East,101,0.0,1.0,97,0.08,,,2.19,LWC V1.12 B30,2013-06-27 23:03:00,
2013-06-27 19:09:00,65.0,64.1,29.66,East,101,0.0,1.0,97,0.07,,,2.19,LWC V1.12 B30,2013-06-27 23:09:00,
2013-06-27 19:15:00,65.0,64.1,29.66,East,101,0.0,1.0,97,0.05,,,2.20,LWC V1.12 B30,2013-06-27 23:15:00,
2013-06-27 19:21:00,65.2,64.3,29.66,East,101,1.0,1.0,97,0.04,,,2.20,LWC V1.12 B30,2013-06-27 23:21:00,
2013-06-27 19:27:00,65.5,64.9,29.66,East,101,0.0,0.0,98,0.00,,,2.20,LWC V1.12 B30,2013-06-27 23:27:00,
2013-06-27 19:33:00,65.8,65.2,29.65,East,101,0.0,0.0,98,0.00,,,2.20,LWC V1.12 B30,2013-06-27 23:33:00,
2013-06-27 19:39:00,65.6,65.0,29.66,East,101,0.0,0.0,98,0.00,,,2.20,LWC V1.12 B30,2013-06-27 23:39:00,
2013-06-27 19:47:00,65.6,64.7,29.65,East,101,0.0,0.0,97,0.00,,,2.20,LWC V1.12 B30,2013-06-27 23:47:00,
2013-06-27 19:53:00,65.8,65.2,29.65,East,101,0.0,1.0,98,0.00,,,2.20,LWC V1.12 B30,2013-06-27 23:53:00,
2013-06-27 19:59:00,66.0,65.4,29.65,East,101,0.0,1.0,98,0.00,,,2.20,LWC V1.12 B30,2013-06-27 23:59:00,
2013-06-27 20:05:00,66.0,65.4,29.65,East,101,0.0,1.0,98,0.00,,,2.20,LWC V1.12 B30,2013-06-28 00:05:00,
2013-06-27 20:11:00,66.1,65.5,29.65,East,101,0.0,0.0,98,0.00,,,2.20,LWC V1.12 B30,2013-06-28 00:11:00,
2013-06-27 20:19:00,66.3,65.7,29.64,East,101,0.0,0.0,98,0.00,,,2.20,LWC V1.12 B30,2013-06-28 00:19:00,
2013-06-27 20:25:00,66.3,65.7,29.65,East,101,0.0,0.0,98,0.00,,,2.20,LWC V1.12 B30,2013-06-28 00:25:00,
2013-06-27 20:31:00,66.1,65.5,29.64,East,101,0.0,0.0,98,0.00,,,2.20,LWC V1.12 B30,2013-06-28 00:31:00,
2013-06-27 20:37:00,66.1,65.5,29.64,East,101,0.0,0.0,98,0.00,,,2.20,LWC V1.12 B30,2013-06-28 00:37:00,
2013-06-27 20:43:00,66.1,65.5,29.64,East,101,0.0,0.0,98,0.00,,,2.20,LWC V1.12 B30,2013-06-28 00:43:00,
2013-06-27 20:49:00,66.1,65.5,29.64,East,101,0.0,0.0,98,0.00,,,2.20,LWC V1.12 B30,2013-06-28 00:49:00,
2013-06-27 20:55:00,66.1,65.5,29.64,East,101,0.0,0.0,98,0.00,,,2.20,LWC V1.12 B30,2013-06-28 00:55:00,
2013-06-27 21:01:00,66.1,65.5,29.64,East,101,0.0,0.0,98,0.00,,,2.20,LWC V1.12 B30,2013-06-28 01:01:00,
2013-06-27 21:09:00,66.0,65.4,29.63,East,101,0.0,0.0,98,0.00,,,2.20,LWC V1.12 B30,2013-06-28 01:09:00,
2013-06-27 21:15:00,66.0,65.4,29.63,East,101,0.0,0.0,98,0.00,,,2.21,LWC V1.12 B30,2013-06-28 01:15:00,
2013-06-27 21:23:00,65.8,65.2,29.62,East,101,0.0,0.0,98,0.00,,,2.20,LWC V1.12 B30,2013-06-28 01:23:00,
2013-06-27 21:29:00,65.8,65.2,29.62,East,101,0.0,0.0,98,0.00,,,2.20,LWC V1.12 B30,2013-06-28 01:29:00,
2013-06-27 21:35:00,65.8,65.2,29.62,East,101,0.0,0.0,98,0.00,,,2.20,LWC V1.12 B30,2013-06-28 01:35:00,
2013-06-27 21:41:00,65.6,65.0,29.63,East,101,0.0,0.0,98,0.00,,,2.20,LWC V1.12 B30,2013-06-28 01:41:00,
2013-06-27 21:47:00,65.6,65.0,29.63,East,101,0.0,0.0,98,0.00,,,2.20,LWC V1.12 B30,2013-06-28 01:47:00,
2013-06-27 21:53:00,65.6,65.0,29.63,East,101,0.0,0.0,98,0.00,,,2.20,LWC V1.12 B30,2013-06-28 01:53:00,
2013-06-27 21:59:00,65.6,65.0,29.64,East,101,0.0,0.0,98,0.00,,,2.20,LWC V1.12 B30,2013-06-28 01:59:00,
2013-06-27 22:05:00,65.5,64.9,29.64,East,101,0.0,0.0,98,0.00,,,2.20,LWC V1.12 B30,2013-06-28 02:05:00,
2013-06-27 22:11:00,65.5,64.9,29.64,East,101,0.0,0.0,98,0.00,,,2.20,LWC V1.12 B30,2013-06-28 02:11:00,
2013-06-27 22:17:00,65.5,64.9,29.64,East,101,0.0,1.0,98,0.00,,,2.20,LWC V1.12 B30,2013-06-28 02:17:00,
2013-06-27 22:23:00,65.5,64.9,29.63,East,101,0.0,0.0,98,0.00,,,2.20,LWC V1.12 B30,2013-06-28 02:23:00,
2013-06-27 22:29:00,65.3,64.7,29.63,East,101,0.0,0.0,98,0.00,,,2.20,LWC V1.12 B30,2013-06-28 02:29:00,
2013-06-27 22:35:00,65.3,64.7,29.63,East,101,0.0,1.0,98,0.00,,,2.20,LWC V1.12 B30,2013-06-28 02:35:00,
2013-06-27 22:41:00,65.3,64.7,29.62,East,101,0.0,1.0,98,0.00,,,2.20,LWC V1.12 B30,2013-06-28 02:41:00,
2013-06-27 22:47:00,65.2,64.6,29.62,East,101,0.0,0.0,98,0.00,,,2.20,LWC V1.12 B30,2013-06-28 02:47:00,
2013-06-27 22:53:00,65.0,64.4,29.62,SSE,159,1.0,2.0,98,0.00,,,2.20,LWC V1.12 B30,2013-06-28 02:53:00,
2013-06-27 23:01:00,65.0,64.4,29.62,SSE,159,0.0,2.0,98,0.00,,,2.20,LWC V1.12 B30,2013-06-28 03:01:00,
2013-06-27 23:07:00,65.0,64.4,29.61,SSE,159,0.0,0.0,98,0.00,,,2.20,LWC V1.12 B30,2013-06-28 03:07:00,
2013-06-27 23:15:00,65.0,64.4,29.60,SSE,159,0.0,1.0,98,0.00,,,2.21,LWC V1.12 B30,2013-06-28 03:15:00,
2013-06-27 23:23:00,65.0,64.4,29.60,SSE,159,0.0,0.0,98,0.00,,,2.20,LWC V1.12 B30,2013-06-28 03:23:00,
2013-06-27 23:29:00,65.0,64.4,29.59,SSE,159,0.0,1.0,98,0.00,,,2.20,LWC V1.12 B30,2013-06-28 03:29:00,
2013-06-27 23:35:00,65.0,64.4,29.59,SSE,159,0.0,0.0,98,0.00,,,2.20,LWC V1.12 B30,2013-06-28 03:35:00,
2013-06-27 23:41:00,64.8,64.2,29.59,SSE,159,0.0,0.0,98,0.00,,,2.20,LWC V1.12 B30,2013-06-28 03:41:00,
2013-06-27 23:49:00,64.8,64.2,29.59,SSE,159,0.0,0.0,98,0.00,,,2.20,LWC V1.12 B30,2013-06-28 03:49:00,
2013-06-27 23:55:00,64.8,64.2,29.59,SSE,159,0.0,0.0,98,0.00,,,2.20,LWC V1.12 B30,2013-06-28 03:55:00,